Muscle Shoals, AL

3:45 PM CST on December 09, 2019 (GMT -0600)
Northwest Alabama Regional

Weather History for KMSL - October, 2019

Change the Weather History Date:

Thursday, October 31, 2019

  Actual Average Record
Temperature  
Mean Temperature 55 °F 57 °F  
Max Temperature 73 °F 69 °F 88 °F (2016)
Min Temperature 36 °F 45 °F 23 °F (1917)
Degree Days  
Heating Degree Days 10 9  
Month to date heating degree days 118 153  
Since 1 July heating degree days 118 168  
Cooling Degree Days 0 1  
Month to date cooling degree days 144 62  
Year to date cooling degree days 2502 1864  
Growing Degree Days 4 (Base 50)    
Moisture  
Dew Point 45 °F    
Average Humidity 76    
Maximum Humidity 93    
Minimum Humidity 59    
Precipitation  
Precipitation 0.76 in 0.12 in 1.47 in (1942)
Month to date precipitation 7.44 3.43  
Year to date precipitation 53.96 42.86  
Snow  
Snow 0.00 in - - ()
Month to date snowfall 0.0  
Since 1 July snowfall 0.0  
Since 1 September snowfall 0.0  
Snow Depth 0.00 in    
Sea Level Pressure  
Sea Level Pressure 30.03 in    
Wind  
Wind Speed 12 mph (WNW)    
Max Wind Speed 32 mph    
Max Gust Speed 41 mph    
Visibility 8 miles    
Events Rain    
T = Trace of Precipitation, MM = Missing Value Source: NWS Daily Summary

Daily Weather History Graph

Daily Weather History Graph

Search for Another Location

Airport or City:

Astronomy

Oct. 31, 2019 Rise Set
Actual Time 7:09 AM CDT 5:57 PM CDT
Civil Twilight 6:43 AM CDT 6:23 PM CDT
Nautical Twilight 6:14 AM CDT 6:53 PM CDT
Astronomical Twilight 5:44 AM CDT 7:22 PM CDT
Moon 10:51 AM CDT (10/31) 9:00 PM CDT (10/31)
Length of Visible Light 11h 39m
Length of Day
10h 47m
Waxing Crescent, 16% of the Moon is Illuminated
Oct 31
Waxing Crescent
Nov 4
First Quarter
Nov 12
Full
Nov 19
Last Quarter
Nov 26
New

Hourly Weather History & Observations

Time (CDT) Temp. Windchill Dew Point Humidity Pressure Visibility Wind Dir Wind Speed Gust Speed Precip Events Conditions
12:28 AM 69.1 °F - 66.9 °F 93% 29.86 in 2.0 mi Calm Calm - 0.01 in Rain Rain
12:38 AM 69.1 °F - 66.9 °F 93% 29.87 in 1.5 mi SSW 4.6 mph - 0.05 in Rain Rain
12:46 AM 69.1 °F - 66.9 °F 93% 29.86 in 2.0 mi SSW 3.5 mph - 0.07 in Rain Rain
12:53 AM 69.1 °F - 66.9 °F 93% 29.83 in 2.5 mi SSE 3.5 mph - 0.09 in Rain Rain
1:00 AM 69.1 °F - 66.9 °F 93% 29.85 in 4.0 mi Calm Calm - 0.02 in Rain Rain
1:53 AM 70.0 °F - 68.0 °F 93% 29.78 in 10.0 mi South 5.8 mph - 0.14 in Rain Light Rain
2:34 AM 71.1 °F - 69.1 °F 93% 29.77 in 10.0 mi SSE 9.2 mph - 0.01 in Rain Light Rain
3:53 AM 73.0 °F - 69.1 °F 87% 29.75 in 10.0 mi SSW 12.7 mph - 0.01 in   Mostly Cloudy
4:00 AM 72.0 °F - 69.1 °F 91% 29.76 in 10.0 mi SSW 12.7 mph - N/A   Mostly Cloudy
4:15 AM 70.0 °F - 66.9 °F 90% 29.80 in 10.0 mi North - - 0.01 in Rain Light Rain
4:29 AM 57.9 °F - 55.0 °F 90% 29.82 in 2.5 mi WNW 26.5 mph 39.1 mph 0.15 in Rain Heavy Rain
4:36 AM 57.0 °F - 54.0 °F 89% 29.83 in 6.0 mi WNW 24.2 mph 35.7 mph 0.17 in Rain Light Rain
4:53 AM 55.0 °F - 53.1 °F 93% 29.83 in 10.0 mi WNW 19.6 mph 26.5 mph 0.22 in Rain Light Rain
5:26 AM 53.1 °F - 48.9 °F 86% 29.87 in 8.0 mi WNW 16.1 mph - 0.00 in Rain Light Rain
5:53 AM 51.1 °F - 48.9 °F 92% 29.89 in 5.0 mi WNW 16.1 mph 25.3 mph 0.07 in Rain Rain
6:18 AM 50.0 °F - 46.0 °F 86% 29.91 in 10.0 mi NW 13.8 mph 26.5 mph 0.01 in   Overcast
6:49 AM 48.2 °F - 46.4 °F 93% 29.93 in 9.0 mi WNW 15.0 mph - 0.03 in Rain Light Rain
6:53 AM 48.9 °F - 46.0 °F 90% 29.92 in 10.0 mi NW 15.0 mph - 0.03 in   Overcast
7:24 AM 48.0 °F - 45.0 °F 89% 29.95 in 4.0 mi NW 13.8 mph 25.3 mph 0.12 in Rain Heavy Rain
7:44 AM 48.0 °F - 45.0 °F 89% 29.97 in 3.0 mi WNW 13.8 mph - 0.22 in Rain Heavy Rain
7:53 AM 46.9 °F - 44.1 °F 90% 29.96 in 4.0 mi WNW 19.6 mph 23.0 mph 0.26 in Rain Heavy Rain
8:27 AM 45.0 °F 37.4 °F 42.1 °F 90% 30.00 in 10.0 mi WNW 18.4 mph 26.5 mph 0.02 in Rain Light Rain
8:53 AM 45.0 °F 38.9 °F 41.0 °F 86% 30.00 in 10.0 mi WNW 12.7 mph - 0.03 in   Overcast
9:02 AM 45.0 °F 38.2 °F 41.0 °F 86% 30.01 in 10.0 mi NW 15.0 mph 21.9 mph N/A   Overcast
9:19 AM 45.0 °F 38.2 °F 39.9 °F 82% 30.03 in 10.0 mi WNW 15.0 mph - N/A   Mostly Cloudy
9:32 AM 45.0 °F 37.9 °F 39.9 °F 82% 30.05 in 10.0 mi WNW 16.1 mph 24.2 mph N/A   Mostly Cloudy
9:53 AM 44.1 °F 38.1 °F 39.9 °F 85% 30.05 in 6.0 mi NW 11.5 mph - N/A   Overcast
10:35 AM 43.0 °F 35.7 °F 39.9 °F 89% 30.08 in 10.0 mi WNW 15.0 mph - 0.00 in Rain Light Rain
10:53 AM 43.0 °F 35.4 °F 37.9 °F 82% 30.09 in 10.0 mi NW 16.1 mph 25.3 mph 0.01 in Rain Light Rain
10:58 AM 43.0 °F 35.1 °F 37.9 °F 82% 30.10 in 10.0 mi WNW 17.3 mph 25.3 mph 0.00 in   Overcast
11:53 AM 44.1 °F 37.1 °F 36.0 °F 73% 30.12 in 10.0 mi NW 15.0 mph 27.6 mph 0.00 in   Overcast
12:01 PM 46.0 °F 40.2 °F 37.9 °F 73% 30.12 in 10.0 mi WNW 12.7 mph 26.5 mph N/A   Overcast
12:10 PM 44.1 °F 36.2 °F 35.1 °F 71% 30.13 in 10.0 mi WNW 18.4 mph 32.2 mph N/A   Overcast
12:46 PM 45.0 °F 37.9 °F 37.9 °F 76% 30.13 in 10.0 mi WNW 16.1 mph 29.9 mph N/A   Mostly Cloudy
12:53 PM 45.0 °F 37.9 °F 37.9 °F 76% 30.13 in 10.0 mi NW 16.1 mph - N/A   Overcast
1:35 PM 42.1 °F 33.9 °F 32.0 °F 67% 30.15 in 10.0 mi NW 17.3 mph 29.9 mph 0.00 in   Overcast
1:53 PM 42.1 °F 33.6 °F 32.0 °F 67% 30.16 in 10.0 mi WNW 18.4 mph 25.3 mph 0.00 in   Overcast
2:53 PM 42.1 °F 35.7 °F 30.9 °F 65% 30.19 in 10.0 mi NW 11.5 mph 27.6 mph N/A   Overcast
3:53 PM 43.0 °F 36.0 °F 30.0 °F 60% 30.21 in 10.0 mi NW 13.8 mph 20.7 mph N/A   Overcast
4:53 PM 43.0 °F 36.0 °F 30.0 °F 60% 30.23 in 10.0 mi NW 13.8 mph 21.9 mph N/A   Overcast
5:53 PM 42.1 °F 37.7 °F 28.9 °F 60% 30.25 in 10.0 mi NW 6.9 mph - N/A   Overcast
6:53 PM 39.9 °F 33.4 °F 28.9 °F 65% 30.29 in 10.0 mi NW 10.4 mph - N/A   Overcast
7:53 PM 39.0 °F 34.0 °F 28.0 °F 65% 30.32 in 10.0 mi NW 6.9 mph - N/A   Clear
8:53 PM 37.0 °F 32.4 °F 30.0 °F 76% 30.33 in 10.0 mi NW 5.8 mph - N/A   Clear
9:53 PM 37.0 °F 33.3 °F 28.9 °F 73% 30.35 in 10.0 mi NNW 4.6 mph - N/A   Clear
10:53 PM 36.0 °F 32.1 °F 28.9 °F 76% 30.35 in 10.0 mi NNW 4.6 mph - N/A   Clear
11:53 PM 36.0 °F 31.1 °F 28.9 °F 76% 30.35 in 10.0 mi North 5.8 mph - N/A   Clear